Nice, France

5:13 AM CET on November 22, 2017 (GMT +0100)
Nice-Cote d'Azur

Weather History for LFMN - December, 2013

Change the Weather History Date:

Thursday, December 5, 2013

  Actual Average Record
Temperature  
Mean Temperature 50 °F -  
Max Temperature 58 °F 55 °F 66 °F (2006)
Min Temperature 41 °F 42 °F 37 °F (2010)
Degree Days  
Heating Degree Days 16    
Moisture  
Dew Point 32 °F    
Average Humidity 56    
Maximum Humidity 76    
Minimum Humidity 30    
Precipitation  
Precipitation 0.00 in 0.10 in - ()
Sea Level Pressure  
Sea Level Pressure 30.16 in    
Wind  
Wind Speed 11 mph ()    
Max Wind Speed 17 mph    
Max Gust Speed -    
Visibility 7.9 miles    
Events      
Averages and records for this station are not official NWS values.
T = Trace of Precipitation, MM = Missing Value Source: Averaged Metar Reports

Daily Weather History Graph

Daily Weather History Graph

Search for Another Location

Airport or City:

Trip Planner

Search our weather history database for the weather conditions in past years. The results will help you decide how hot, cold, wet, or windy it might be!

Date:

Astronomy

Dec. 05, 2013 Rise Set
Actual Time 7:48 AM CET 4:54 PM CET
Civil Twilight 7:16 AM CET 5:26 PM CET
Nautical Twilight 6:40 AM CET 6:02 PM CET
Astronomical Twilight 6:05 AM CET 6:37 PM CET
Moon 9:53 AM CET (12/5) 7:58 PM CET (12/5)
Length of Visible Light 10h 10m
Length of Day
9h 05m
Waxing Crescent, 9% of the Moon is Illuminated
Dec 5
Waxing Crescent
Dec 9
First Quarter
Dec 17
Full
Dec 25
Last Quarter
Jan 1
New

Hourly Weather History & Observations

Time (CET) Temp. Windchill Dew Point Humidity Pressure Visibility Wind Dir Wind Speed Gust Speed Precip Events Conditions
12:00 AM 44.6 °F 38.8 °F 30.2 °F 57% 30.21 in 6.2 mi NNW 11.5 mph - N/A   Partly Cloudy
12:30 AM 44.6 °F 38.4 °F 30.2 °F 57% 30.21 in 6.2 mi NNW 12.7 mph - N/A   Partly Cloudy
1:00 AM 44 °F - 29 °F 42% 30.21 in 9 mi NNW 11.5 mph - -   Scattered Clouds
1:00 AM 44.6 °F 38.8 °F 28.4 °F 53% 30.18 in 6.2 mi NNW 11.5 mph - N/A   Partly Cloudy
1:30 AM 42.8 °F 35.8 °F 28.4 °F 57% 30.18 in 6.2 mi NNW 13.8 mph - N/A   Partly Cloudy
2:00 AM 42.8 °F 35.8 °F 28.4 °F 57% 30.18 in 6.2 mi NNW 13.8 mph - N/A   Partly Cloudy
2:30 AM 42.8 °F 36.2 °F 26.6 °F 53% 30.18 in 6.2 mi NNW 12.7 mph - N/A   Partly Cloudy
3:00 AM 42.8 °F 35.8 °F 26.6 °F 53% 30.18 in 6.2 mi NNW 13.8 mph - N/A   Partly Cloudy
3:30 AM 42.8 °F 36.2 °F 26.6 °F 53% 30.18 in 6.2 mi NNW 12.7 mph - N/A   Partly Cloudy
4:00 AM 42 °F - 26 °F 40% 30.19 in 12 mi NNW 13.8 mph - -   Scattered Clouds
4:00 AM 42.8 °F 35.8 °F 26.6 °F 53% 30.18 in 6.2 mi NNW 13.8 mph - N/A   Partly Cloudy
4:30 AM 41.0 °F 32.5 °F 26.6 °F 57% 30.18 in 6.2 mi NNW 17.3 mph - N/A   Mostly Cloudy
5:00 AM 41.0 °F 32.8 °F 24.8 °F 53% 30.18 in 6.2 mi NNW 16.1 mph - N/A   Partly Cloudy
5:30 AM 41.0 °F 33.1 °F 24.8 °F 53% 30.18 in 6.2 mi NNW 15.0 mph - N/A   Partly Cloudy
6:00 AM 41.0 °F 32.8 °F 24.8 °F 53% 30.18 in 6.2 mi NNW 16.1 mph - N/A   Partly Cloudy
6:30 AM 41.0 °F 33.1 °F 24.8 °F 53% 30.18 in 6.2 mi NNW 15.0 mph - N/A   Partly Cloudy
7:00 AM 41 °F - 25 °F 40% 30.19 in 12 mi NNW 13.8 mph - -   Scattered Clouds
7:00 AM 41.0 °F 33.5 °F 24.8 °F 53% 30.18 in 6.2 mi NNW 13.8 mph - N/A   Partly Cloudy
7:30 AM 41.0 °F 34.3 °F 24.8 °F 53% 30.18 in 6.2 mi NNW 11.5 mph - N/A   Partly Cloudy
8:00 AM 41.0 °F 33.9 °F 24.8 °F 53% 30.18 in 6.2 mi NNW 12.7 mph - N/A   Scattered Clouds
8:30 AM 41.0 °F 33.9 °F 24.8 °F 53% 30.18 in 6.2 mi NNW 12.7 mph - N/A   Scattered Clouds
9:00 AM 42.8 °F 35.4 °F 23.0 °F 46% 30.18 in 6.2 mi NNW 15.0 mph - N/A   Partly Cloudy
9:30 AM 44.6 °F 38.8 °F 24.8 °F 46% 30.21 in 6.2 mi NNW 11.5 mph - N/A   Partly Cloudy
10:00 AM 46 °F - 24 °F 30% 30.23 in 25 mi NNW 11.5 mph - -   Scattered Clouds
10:00 AM 46.4 °F 41.1 °F 24.8 °F 43% 30.21 in 6.2 mi NNW 11.5 mph - N/A   Partly Cloudy
10:37 AM 48.2 °F - 24.8 °F 40% 30.21 in 6.2 mi NNW 12.7 mph - N/A   Partly Cloudy
11:00 AM 50.0 °F - 26.6 °F 40% 30.21 in - NNW 12.7 mph - N/A   Clear
11:30 AM 51.8 °F - 26.6 °F 38% 30.21 in - NW 11.5 mph - N/A   Clear
12:00 PM 53.6 °F - 28.4 °F 38% 30.18 in - NW 9.2 mph - N/A   Clear
12:30 PM 55.4 °F - 32.0 °F 41% 30.18 in - NW 5.8 mph - N/A   Clear
1:00 PM 58 °F - 41 °F 42% 30.18 in 19 mi SW 3.5 mph - -   Clear
1:00 PM 57.2 °F - 41.0 °F 55% 30.15 in - Variable 2.3 mph - N/A   Clear
1:30 PM 57.2 °F - 44.6 °F 63% 30.15 in - SSW 4.6 mph - N/A   Clear
2:00 PM 57.2 °F - 46.4 °F 67% 30.15 in - SSW 6.9 mph - N/A   Clear
2:30 PM 57.2 °F - 46.4 °F 67% 30.15 in - SSW 6.9 mph - N/A   Clear
3:00 PM 57.2 °F - 46.4 °F 67% 30.15 in - SSW 8.1 mph - N/A   Clear
3:30 PM 57.2 °F - 46.4 °F 67% 30.15 in - SSW 6.9 mph - N/A   Clear
4:00 PM 56 °F - 47 °F 62% 30.15 in 19 mi SSW 6.9 mph - -   Clear
4:00 PM 57.2 °F - 46.4 °F 67% 30.12 in - SSW 6.9 mph - N/A   Clear
4:30 PM 55.4 °F - 44.6 °F 67% 30.12 in 6.2 mi SW 5.8 mph - N/A   Scattered Clouds
5:00 PM 55.4 °F - 44.6 °F 67% 30.12 in 6.2 mi SW 4.6 mph - N/A   Scattered Clouds
6:00 PM 50.0 °F - 42.8 °F 76% 30.12 in - NW 8.1 mph - N/A   Clear
6:30 PM 48.2 °F - 39.2 °F 71% 30.12 in - NW 10.4 mph - N/A   Clear
7:00 PM 47 °F - 39 °F 65% 30.15 in 12 mi NW 11.5 mph - -   Clear
7:00 PM 48.2 °F - 39.2 °F 71% 30.12 in - NW 10.4 mph - N/A   Clear
7:30 PM 46.4 °F 41.9 °F 37.4 °F 71% 30.12 in - NNW 9.2 mph - N/A   Clear
8:00 PM 46.4 °F 41.5 °F 35.6 °F 66% 30.12 in - NNW 10.4 mph - N/A   Clear
8:30 PM 46.4 °F 41.1 °F 35.6 °F 66% 30.12 in - NNW 11.5 mph - N/A   Clear
9:00 PM 46.4 °F 41.1 °F 33.8 °F 62% 30.12 in - NNW 11.5 mph - N/A   Clear
9:30 PM 44.6 °F 38.8 °F 33.8 °F 66% 30.12 in - NNW 11.5 mph - N/A   Clear
10:00 PM 45 °F - 33 °F 51% 30.12 in 12 mi NNW 12.7 mph - -  
10:00 PM 44.6 °F 38.4 °F 32.0 °F 61% 30.09 in - NNW 12.7 mph - N/A   Clear
10:30 PM 44.6 °F 38.8 °F 32.0 °F 61% 30.12 in - NNW 11.5 mph - N/A   Clear
11:00 PM 44.6 °F 38.4 °F 32.0 °F 61% 30.12 in - NNW 12.7 mph - N/A   Clear